Terminal Aerodrome Forecast
Issued by NWS North Platte, NE

Home | Current Version | Previous Version | Text Only | Print | Product List | Glossary Off
Versions: 1 2 3 4 5 6 7 8 9 10 11 12

000
FTUS43 KLBF 310500
TAFVTN
TAF
KVTN 310520Z 3106/0106 21008KT P6SM SCT090
     FM311500 35009KT P6SM SCT120
     FM010100 35004KT P6SM SCT120=

USA.gov is the U.S. government's official web portal to all federal, state and local government web resources and services.